This is the latest recevied weather packets stored in our database for station/object K3PPP. If no packets are shown the sender has not sent any weather packets the latest 1 day(s).
| Time | Temp. | Humidity | Pressure | Rain* | Wind** | Luminosity | Snow |
|---|---|---|---|---|---|---|---|
| 1778060775 | 11.11° C | 96% | 1008.3 hPa | 3.05 mm | - | 0 W/m² | - |
| 1778060171 | 11.67° C | 95% | 1008.4 hPa | 3.05 mm | - | 0 W/m² | - |
| 1778059868 | 11.67° C | 95% | 1008.4 hPa | 1.78 mm | - | 0 W/m² | - |
| 1778058961 | 11.67° C | 92% | 1008.2 hPa | 3.05 mm | - | 0 W/m² | - |
| 1778058658 | 11.67° C | 91% | 1008.2 hPa | 3.05 mm | - | 0 W/m² | - |
| 1778057142 | 12.22° C | 85% | 1008.5 hPa | 1.27 mm | - | 0 W/m² | - |
| 1778056838 | 12.22° C | 86% | 1008.4 hPa | 1.27 mm | - | 0 W/m² | - |
| 1778056535 | 13.33° C | 82% | 1008.5 hPa | 0 mm | - | 0 W/m² | - |
| 1778055625 | 12.78° C | 77% | 1008 hPa | 0 mm | - | 0 W/m² | - |
| 1778054718 | 13.33° C | 78% | 1008.1 hPa | 0 mm | - | 0 W/m² | - |
| 1778054415 | 12.78° C | 78% | 1008.1 hPa | 0 mm | - | 0 W/m² | - |
| 1778053809 | 12.78° C | 79% | 1008.3 hPa | 0 mm | - | 0 W/m² | - |
| 1778051691 | 12.78° C | 82% | 1008.4 hPa | 0 mm | - | 0 W/m² | - |
| 1778051388 | 13.33° C | 83% | 1008.2 hPa | 0 mm | - | 0 W/m² | - |
| 1778051085 | 12.78° C | 82% | 1008.4 hPa | 0 mm | - | 0 W/m² | - |
| 1778050176 | 13.33° C | 82% | 1008.4 hPa | 0 mm | - | 0 W/m² | - |
| 1778049872 | 12.78° C | 80% | 1008.8 hPa | 0 mm | - | 0 W/m² | - |
| 1778049569 | 12.78° C | 83% | 1008.9 hPa | 0 mm | - | 0 W/m² | - |
| 1778048358 | 14.44° C | 75% | 1009.3 hPa | 0 mm | - | 0 W/m² | - |
| 1778048055 | 14.44° C | 75% | 1009.3 hPa | 0 mm | - | 0 W/m² | - |
| 1778047753 | 13.89° C | 72% | 1009.3 hPa | 0 mm | - | 0 W/m² | - |
| 1778047451 | 14.44° C | 73% | 1009.5 hPa | 0 mm | - | 0 W/m² | - |
| 1778046541 | 15° C | 68% | 1009.8 hPa | 0 mm | - | 0 W/m² | - |
| 1778046238 | 15° C | 67% | 1009.8 hPa | 0 mm | - | 0 W/m² | - |
| 1778045934 | 14.44° C | 70% | 1009.9 hPa | 0 mm | - | 0 W/m² | - |
* Rain latest hour (hover to see other rain measurements)
** Current wind speed in m/s (hover to see current wind gust speed)